�������C�����ː����j�^�v���󋵏��
Date,Time,Cs137(Bq/L),Cs134(Bq/L),�S��(Bq/L)
2017/06/19,00:00,0.48,ND,ND
2017/06/19,00:10,0.45,ND,ND
2017/06/19,00:20,0.46,ND,ND
2017/06/19,00:30,0.44,ND,ND
2017/06/19,00:40,0.46,ND,ND
2017/06/19,00:50,0.41,0.041,ND
2017/06/19,01:00,0.50,ND,ND
2017/06/19,01:10,0.47,0.034,ND
2017/06/19,01:20,0.46,0.033,ND
2017/06/19,01:30,0.49,0.025,ND
2017/06/19,01:40,0.51,ND,ND
2017/06/19,01:50,0.50,ND,ND
2017/06/19,02:00,0.43,0.035,ND
2017/06/19,02:10,0.40,0.042,ND
2017/06/19,02:20,0.42,0.035,ND
2017/06/19,02:30,0.48,ND,ND
2017/06/19,02:40,0.43,0.031,ND
2017/06/19,02:50,0.49,ND,ND
2017/06/19,03:00,0.49,ND,ND
2017/06/19,03:10,0.53,ND,ND
2017/06/19,03:20,0.52,ND,ND
2017/06/19,03:30,0.47,ND,9.2
2017/06/19,03:40,0.42,0.030,ND
2017/06/19,03:50,0.46,ND,ND
2017/06/19,04:00,0.47,ND,ND
2017/06/19,04:10,0.46,ND,ND
2017/06/19,04:20,0.48,ND,ND
2017/06/19,04:30,0.50,ND,ND
2017/06/19,04:40,0.43,0.031,ND
2017/06/19,04:50,0.48,ND,ND
2017/06/19,05:00,0.47,ND,ND
2017/06/19,05:10,0.48,ND,ND
2017/06/19,05:20,0.49,ND,ND
2017/06/19,05:30,0.49,ND,ND
2017/06/19,05:40,0.49,ND,ND
2017/06/19,05:50,0.48,ND,ND
2017/06/19,06:00,0.44,0.026,ND
2017/06/19,06:10,0.43,0.026,ND
2017/06/19,06:20,0.43,0.026,ND
2017/06/19,06:30,0.44,0.029,ND
2017/06/19,06:40,0.49,ND,ND
2017/06/19,06:50,0.49,ND,ND
2017/06/19,07:00,0.50,ND,ND
2017/06/19,07:10,0.52,ND,ND
2017/06/19,07:20,0.53,ND,ND
2017/06/19,07:30,0.54,ND,ND
2017/06/19,07:40,0.51,0.026,ND
2017/06/19,07:50,0.52,0.027,ND
2017/06/19,08:00,0.55,ND,ND
2017/06/19,08:10,0.57,ND,ND
2017/06/19,08:20,0.54,ND,ND
2017/06/19,08:30,0.54,ND,ND
2017/06/19,08:40,0.53,ND,ND
2017/06/19,08:50,0.55,ND,ND
2017/06/19,09:00,0.55,ND,ND
2017/06/19,09:10,0.52,ND,ND
2017/06/19,09:20,0.54,ND,ND
2017/06/19,09:30,0.53,ND,ND
2017/06/19,09:40,0.53,ND,ND
2017/06/19,09:50,0.51,ND,ND
2017/06/19,10:00,0.53,ND,ND
2017/06/19,10:10,0.52,ND,ND
2017/06/19,10:20,0.46,0.040,ND
2017/06/19,10:30,0.48,0.039,ND
2017/06/19,10:40,0.52,ND,ND
2017/06/19,10:50,0.54,ND,ND
2017/06/19,11:00,0.54,ND,ND
2017/06/19,11:10,0.56,ND,ND
2017/06/19,11:20,0.57,ND,ND
2017/06/19,11:30,0.57,ND,ND
2017/06/19,11:40,0.58,ND,ND
2017/06/19,11:50,0.58,ND,ND
2017/06/19,12:00,0.59,ND,ND
2017/06/19,12:10,0.59,ND,ND
2017/06/19,12:20,0.61,ND,ND
2017/06/19,12:30,0.64,ND,ND
2017/06/19,12:40,0.64,ND,ND
2017/06/19,12:50,0.64,ND,ND
2017/06/19,13:00,0.56,0.057,ND
2017/06/19,13:10,0.57,0.048,ND
2017/06/19,13:20,0.54,0.047,ND
2017/06/19,13:30,0.61,ND,ND
2017/06/19,13:40,0.59,ND,ND
2017/06/19,13:50,0.51,0.037,ND
2017/06/19,14:00,0.50,0.031,ND
2017/06/19,14:10,0.46,0.038,ND
2017/06/19,14:20,0.50,ND,ND
2017/06/19,14:30,0.41,0.037,ND
2017/06/19,14:40,0.43,0.033,ND
2017/06/19,14:50,0.42,0.044,ND
2017/06/19,15:00,0.48,ND,ND
2017/06/19,15:10,0.49,ND,ND
2017/06/19,15:20,0.52,ND,ND
2017/06/19,15:30,0.52,ND,ND
2017/06/19,15:40,0.46,0.027,ND
2017/06/19,15:50,0.50,ND,11
2017/06/19,16:00,0.51,ND,12
2017/06/19,16:10,0.51,ND,ND
2017/06/19,16:20,0.50,ND,ND
2017/06/19,16:30,0.50,ND,ND
2017/06/19,16:40,0.51,ND,ND
2017/06/19,16:50,0.52,ND,ND
2017/06/19,17:00,0.51,ND,ND
2017/06/19,17:10,0.49,0.025,ND
2017/06/19,17:20,0.45,0.025,ND
2017/06/19,17:30,0.53,ND,ND
2017/06/19,17:40,0.53,ND,ND
2017/06/19,17:50,0.55,ND,ND
2017/06/19,18:00,0.55,ND,ND
2017/06/19,18:10,0.53,ND,ND
2017/06/19,18:20,0.53,ND,ND
2017/06/19,18:30,0.54,ND,ND
2017/06/19,18:40,0.54,ND,ND
2017/06/19,18:50,0.54,ND,ND
2017/06/19,19:00,0.55,ND,ND
2017/06/19,19:10,0.55,ND,ND
2017/06/19,19:20,0.54,ND,ND
2017/06/19,19:30,0.54,ND,ND
2017/06/19,19:40,0.53,ND,ND
2017/06/19,19:50,0.51,ND,ND
2017/06/19,20:00,0.49,ND,ND
2017/06/19,20:10,0.49,ND,ND
2017/06/19,20:20,0.50,0.025,ND
2017/06/19,20:30,0.54,ND,ND
2017/06/19,20:40,0.56,ND,ND
2017/06/19,20:50,0.58,ND,ND
2017/06/19,21:00,0.59,ND,ND
2017/06/19,21:10,0.61,ND,ND
2017/06/19,21:20,0.56,ND,ND
2017/06/19,21:30,0.57,ND,ND
2017/06/19,21:40,0.58,ND,ND
2017/06/19,21:50,0.59,ND,ND
2017/06/19,22:00,0.62,ND,ND
2017/06/19,22:10,0.61,ND,ND
2017/06/19,22:20,0.55,0.043,ND
2017/06/19,22:30,0.62,ND,ND
2017/06/19,22:40,0.56,0.041,ND
2017/06/19,22:50,0.56,0.040,ND
2017/06/19,23:00,0.62,ND,ND
2017/06/19,23:10,0.58,0.038,ND
2017/06/19,23:20,0.66,ND,ND
2017/06/19,23:30,0.67,ND,ND
2017/06/19,23:40,0.61,0.044,ND
2017/06/19,23:50,0.62,0.050,ND
